Theta_e
323 323 324 324 325 323 323 324 325 327 329 328 329 329 330 330 331 331 333 333 333 332 332 331 329 329 329 328 328 329 329 330 330 330 329 329 329 330 330 331 331 331 329 330 329 327 327 326 326 325 326 324 324 324 324 323 324 324 322 322 321 321 321 322 323 323 320 318 320 321 321 322 322 323 322 322 322 322 320 316 317 317 316 316 317
322 321 322 322 323 324 322 322 322 323 326 328 328 329 329 330 330 331 332 333 332 332 332 331 331 330 328 327 328 328 328 327 327 328 329 329 330 330 331 332 332 331 330 329 329 329 327 326 326 325 324 324 324 325 325 322 324 324 323 321 322 320 320 322 322 321 318 315 314 316 317 320 321 321 320 320 321 321 320 317 316 315 315 315 316
318 319 321 321 323 323 322 321 321 321 323 326 329 329 329 329 330 330 331 332 332 332 332 331 331 331 330 330 329 328 330 330 329 328 329 329 330 330 332 332 332 331 331 330 328 328 328 327 326 326 325 324 323 324 323 323 323 323 323 321 320 321 321 323 323 322 316 317 317 314 312 312 317 318 320 319 320 319 319 317 315 314 313 314 315
317 319 319 320 322 321 322 321 320 321 321 322 325 327 329 329 330 330 330 331 331 332 331 333 332 332 332 332 331 330 328 329 329 329 329 329 328 330 331 332 331 330 330 330 329 329 329 327 326 326 326 325 324 323 323 322 323 323 322 321 321 318 319 319 323 323 319 317 311 312 312 312 309 312 314 318 319 319 317 317 315 313 313 314 314
317 318 319 320 320 321 321 322 321 321 321 322 322 325 326 328 329 330 330 330 331 331 331 332 332 331 332 332 332 329 329 328 327 326 327 327 327 328 328 330 331 330 330 330 330 329 329 329 328 327 326 326 325 323 322 322 323 323 323 321 320 318 318 319 320 322 321 320 316 312 311 309 309 312 315 315 317 316 316 316 316 314 314 313 313
318 318 319 320 320 321 322 322 322 322 321 323 324 324 326 327 329 330 330 330 330 331 331 331 331 330 329 328 325 325 324 324 323 323 325 326 326 328 329 330 330 330 330 330 330 328 328 329 329 328 327 326 326 324 324 323 323 323 323 322 321 321 318 319 318 320 321 321 321 319 317 312 312 314 313 309 315 317 314 314 315 315 315 313 312
319 319 320 319 320 320 321 321 322 321 321 322 323 324 325 327 329 330 330 330 331 331 332 330 330 331 330 328 327 326 324 325 327 327 327 328 329 328 329 330 330 330 329 330 330 329 329 329 329 329 328 327 326 325 324 324 324 324 324 323 321 321 320 316 318 319 319 319 320 321 320 320 320 315 311 313 309 311 312 311 312 314 314 314 312
318 319 320 320 319 319 319 320 320 320 322 322 322 323 324 325 327 328 330 329 330 331 331 330 329 330 330 329 328 327 326 326 327 327 329 329 329 329 329 329 330 330 330 330 330 329 328 328 329 329 329 328 327 326 326 326 325 326 325 324 323 322 321 317 316 319 317 316 318 319 319 320 321 321 320 316 312 310 308 310 311 311 310 311 312
317 319 319 319 319 319 319 319 320 320 322 322 321 322 324 325 326 328 328 329 330 331 330 330 329 329 330 330 328 328 329 328 329 328 328 329 328 329 329 329 330 330 330 330 330 330 328 328 328 329 329 329 327 327 327 327 326 325 325 324 323 322 322 321 318 316 319 319 317 317 319 319 319 319 320 319 314 311 311 311 307 309 308 308 308
318 319 319 319 319 319 320 320 320 320 322 323 321 322 323 324 325 326 327 328 329 330 330 330 330 328 329 329 329 328 328 329 329 328 328 328 327 328 329 329 329 329 330 330 330 330 330 328 328 328 328 329 326 328 328 327 327 326 326 325 325 324 323 322 320 319 318 320 320 319 316 317 317 317 317 317 316 315 312 312 313 303 302 304 306
317 318 318 318 318 317 318 317 317 319 322 321 321 320 321 321 322 324 325 327 328 329 330 329 329 329 327 328 329 329 329 328 327 327 328 328 326 327 328 329 329 329 330 330 330 330 330 329 327 328 329 328 327 328 327 327 326 326 326 326 325 324 323 322 321 321 319 319 321 320 318 317 316 314 315 316 315 313 312 311 313 313 309 309 308
316 315 316 317 316 317 317 316 316 317 318 319 320 321 319 319 321 321 323 325 327 329 329 329 329 329 328 328 328 329 329 329 327 326 327 327 327 327 328 328 328 329 330 329 329 330 329 329 328 328 327 328 328 328 328 327 327 327 326 325 324 324 324 323 322 320 320 319 320 321 320 320 319 318 318 317 316 314 314 312 312 313 313 313 316
316 316 317 318 317 317 317 317 317 318 318 318 318 320 319 319 318 319 321 323 325 327 328 329 328 328 328 327 328 328 329 329 329 328 328 328 328 327 327 327 327 327 328 328 328 329 329 328 328 327 327 327 328 328 328 328 327 327 326 325 324 324 323 323 321 321 321 320 318 320 322 321 320 321 320 319 318 317 316 313 314 315 311 313 315
316 316 317 319 319 319 318 318 317 318 318 319 319 318 318 318 318 317 318 321 323 325 327 328 328 328 328 328 328 327 327 329 329 328 328 328 329 328 328 327 327 327 328 328 329 329 328 328 328 328 328 328 327 328 328 328 328 327 326 325 325 325 324 323 322 322 322 322 321 319 320 321 321 321 320 320 319 318 315 314 314 314 315 313 309
315 316 317 317 318 318 319 319 318 318 318 318 317 317 317 316 317 317 317 319 321 323 325 327 327 328 328 328 328 328 327 327 328 329 329 328 329 329 329 329 328 328 328 329 330 329 328 328 328 328 328 327 327 327 327 328 327 326 326 326 326 326 325 323 322 322 321 321 322 321 320 321 321 322 321 320 320 319 318 317 315 312 310 310 306
315 316 317 317 318 319 319 318 317 317 316 316 316 317 317 316 316 316 317 317 319 320 323 326 327 327 328 327 328 327 327 327 327 327 328 329 329 328 328 329 329 329 330 330 330 330 329 328 328 328 328 328 327 327 327 326 327 326 325 325 325 326 325 324 323 323 322 321 321 322 320 320 321 322 321 320 320 321 320 319 318 316 312 307 302
316 317 317 317 317 318 319 316 315 315 315 315 315 315 315 315 315 315 315 316 318 319 320 323 326 327 327 327 328 328 327 326 326 327 327 328 329 329 328 329 330 329 329 330 330 330 329 328 328 327 327 328 327 326 326 326 326 325 324 324 324 325 323 323 322 321 321 321 321 321 320 320 320 321 321 320 320 320 321 320 320 318 317 312 307
316 316 316 316 316 317 317 316 314 314 313 312 312 313 314 314 314 313 314 314 316 318 319 321 323 325 326 327 327 328 327 327 327 326 327 327 328 328 328 328 328 329 329 330 330 330 329 325 328 327 327 327 326 327 326 326 326 324 324 324 324 324 323 322 322 322 321 321 320 320 320 319 320 320 320 320 320 320 320 320 320 320 319 314 312
316 315 315 317 318 318 316 314 313 313 312 311 312 311 312 312 313 312 312 314 315 316 318 321 323 324 326 326 327 327 327 328 328 328 327 327 327 327 328 328 329 329 328 329 329 329 328 328 327 327 327 326 326 326 326 325 325 323 323 322 323 323 322 321 321 321 321 320 319 319 319 319 320 319 320 320 320 320 320 320 319 319 318 317 315
314 314 315 316 316 315 314 312 311 310 310 311 311 311 310 310 310 310 311 312 313 314 316 317 321 323 324 326 327 327 328 328 328 327 327 326 327 327 328 327 328 328 328 329 328 328 328 327 327 327 326 326 326 325 325 325 325 323 322 322 322 322 320 319 320 320 320 320 319 318 318 319 319 319 319 319 319 319 319 318 318 318 317 317 315
314 315 314 314 314 313 312 311 311 311 311 311 310 309 309 309 309 310 310 310 311 313 314 316 319 321 322 324 326 327 327 328 327 328 327 327 327 327 327 328 328 328 328 328 328 327 327 327 327 325 325 325 325 325 325 324 323 323 322 322 321 321 319 319 319 319 319 319 318 317 317 318 319 318 318 318 318 318 318 318 318 317 316 316 314
313 313 312 313 312 312 311 311 311 310 311 312 313 311 310 309 309 309 310 310 310 312 313 315 319 321 322 323 324 326 327 327 327 327 326 326 327 327 327 328 327 327 328 327 327 327 327 327 325 325 325 324 324 324 324 324 323 322 321 322 321 319 318 317 317 316 317 318 317 316 316 316 317 316 316 316 316 316 316 316 315 314 314 312 312
312 312 312 312 313 312 312 310 310 310 312 313 313 313 312 310 309 309 309 309 310 312 314 315 316 318 320 322 323 324 325 326 326 326 326 326 327 327 327 326 326 326 327 327 326 327 327 326 325 324 324 324 324 324 324 324 323 322 321 321 321 319 317 316 315 315 315 316 315 315 315 316 317 315 315 315 315 315 314 314 313 312 311 311 310
313 313 313 314 314 313 312 313 312 312 311 312 314 312 311 310 310 309 308 309 309 310 312 315 316 318 319 320 322 323 324 324 325 326 326 326 326 326 326 326 326 326 325 326 326 326 326 326 324 323 323 323 323 323 323 323 323 322 321 321 320 319 318 317 316 316 316 315 314 314 314 315 315 314 314 314 315 314 313 312 311 310 309 309 309
311 312 313 313 313 313 314 312 312 312 312 313 313 313 311 310 310 310 309 309 309 309 311 314 316 317 318 319 320 321 322 323 323 325 325 325 325 325 325 325 325 325 325 325 325 326 326 325 324 323 323 322 323 323 323 323 323 322 321 321 320 319 318 317 317 316 310 315 315 314 315 315 315 313 313 313 313 312 311 311 310 310 307 308 306
310 312 313 312 313 313 312 312 314 313 312 313 313 313 311 310 311 311 309 309 308 309 309 311 314 315 316 317 318 320 321 322 323 324 324 325 325 325 324 325 325 324 324 324 325 325 325 324 324 324 323 322 322 323 323 322 322 321 321 320 320 318 317 317 317 316 316 316 315 315 315 315 314 313 312 313 312 310 310 308 307 306 304 302 300
309 309 310 310 312 311 311 314 313 311 312 313 312 312 311 311 311 311 310 308 308 307 307 308 310 312 314 316 317 318 320 321 322 322 324 324 324 324 324 323 324 324 324 323 324 324 323 323 323 323 323 322 322 321 321 321 320 320 319 318 318 318 317 317 317 317 317 316 316 316 315 315 314 314 313 312 311 307 306 304 304 304 300 299 297
308 308 308 309 310 311 312 312 311 312 314 313 312 312 310 310 309 310 309 309 309 306 305 306 307 308 311 313 315 317 319 320 321 322 322 322 323 323 323 323 323 323 323 323 323 322 322 320 321 321 322 322 321 320 320 320 319 319 318 317 317 316 316 316 316 317 316 316 316 316 316 315 315 314 313 313 311 307 305 302 301 300 297 296 296
306 306 307 307 309 311 311 310 310 312 313 312 312 311 311 311 310 309 309 308 308 306 305 305 305 306 308 310 313 315 317 318 319 319 320 320 321 321 322 322 322 322 321 321 322 321 320 319 318 319 319 319 319 319 320 319 318 318 319 317 317 316 315 315 315 314 315 315 315 315 315 315 312 303 302 304 304 304 306 302 298 297 296 295 294
305 305 306 306 307 309 309 309 310 313 313 312 312 312 311 311 311 311 310 310 307 306 305 304 304 305 306 308 310 312 313 314 314 314 315 316 317 318 318 319 319 320 319 316 317 318 318 318 317 317 317 318 318 319 309 306 307 316 318 318 317 316 315 315 313 312 310 309 312 313 311 301 300 298 298 299 300 299 300 304 303 299 297 296 294
305 305 306 307 307 308 309 309 311 312 312 312 312 312 312 312 311 310 309 309 307 305 305 304 304 305 306 306 307 308 309 310 310 311 311 310 312 311 311 311 312 313 314 313 312 314 314 316 316 316 315 316 317 316 305 306 305 306 314 317 316 315 315 314 313 312 310 305 304 304 305 300 297 296 297 296 298 297 297 297 298 297 297 299 294
304 304 305 306 307 307 308 310 311 311 311 310 311 311 310 309 309 308 308 310 307 305 304 304 304 305 305 306 306 306 306 307 307 307 308 306 304 304 305 306 306 305 306 303 305 310 312 313 313 314 314 314 315 305 305 304 304 304 304 313 316 315 314 313 312 312 311 307 304 302 300 300 299 300 300 298 295 295 295 295 295 295 295 296 297
306 306 306 307 306 307 309 310 310 310 309 311 311 308 307 308 307 307 307 307 305 304 303 303 303 304 304 304 304 304 304 304 305 304 303 301 300 300 300 301 301 302 298 301 305 305 307 308 310 311 311 312 312 305 304 304 303 303 303 306 315 315 313 312 311 309 306 304 302 301 299 296 299 292 293 296 296 294 292 293 293 293 293 295 296
306 306 307 307 308 309 309 309 309 309 311 310 309 308 307 307 307 306 305 304 304 304 304 303 303 303 303 303 303 303 303 303 302 301 299 298 298 298 299 299 299 299 299 300 300 301 302 303 306 308 309 309 308 303 302 302 302 301 302 302 311 313 312 311 308 306 305 303 301 300 298 296 294 292 293 294 294 294 293 293 293 294 295 292 292
304 306 306 307 308 308 308 308 309 309 308 308 307 307 307 307 306 305 305 305 304 304 303 303 303 303 303 303 303 302 302 301 300 300 299 297 296 297 297 298 297 298 298 299 299 299 300 300 301 302 303 305 307 300 300 300 300 300 301 301 308 309 309 307 306 303 302 302 301 300 299 298 296 294 294 294 294 294 293 293 293 292 294 293 292
304 305 306 307 308 308 308 307 308 307 306 305 305 305 305 304 304 303 302 303 303 303 303 303 303 303 303 303 302 302 301 300 299 298 296 296 295 295 295 296 296 296 297 298 298 299 299 299 299 299 299 301 302 299 298 298 299 300 300 302 304 306 305 302 300 299 299 299 298 298 297 297 297 295 293 293 295 296 293 290 290 290 290 291 291
308 308 307 307 308 307 306 306 305 304 304 304 304 304 303 302 301 301 301 300 301 301 301 302 301 303 303 303 303 301 300 300 298 297 296 295 294 294 294 294 294 294 295 295 297 297 298 298 297 297 298 299 300 297 296 297 297 298 299 301 301 300 299 298 298 296 296 296 296 297 297 297 296 296 293 293 295 294 291 289 289 289 289 288 288
304 304 304 303 303 303 302 302 301 302 304 304 302 301 300 299 299 299 299 299 300 300 301 301 301 302 302 302 302 301 300 298 298 296 295 295 295 293 293 293 294 294 294 295 295 296 296 296 296 296 297 298 298 295 295 296 296 297 297 299 298 298 296 296 294 293 293 294 294 291 292 296 295 295 293 293 294 293 291 289 288 288 287 287 287
301 301 300 300 300 300 300 300 302 301 301 301 300 299 299 298 298 299 299 298 299 300 301 301 301 302 301 300 300 300 299 299 297 296 296 294 293 292 292 292 294 295 295 296 294 296 295 295 295 295 291 295 297 295 294 295 295 296 295 297 297 296 296 295 294 293 291 292 292 289 289 292 294 294 293 293 294 293 291 289 289 288 288 287 288
300 300 299 299 299 300 299 299 299 299 300 299 298 298 296 297 297 298 298 298 299 300 301 301 300 300 300 300 299 298 298 297 296 296 295 294 292 291 291 292 294 295 295 295 295 295 294 293 293 292 292 294 295 295 295 294 295 295 295 296 296 296 295 294 293 293 291 290 290 291 290 292 294 294 293 293 293 293 292 290 290 289 289 288 288
298 298 295 299 299 299 298 298 299 299 298 297 297 296 295 295 295 296 296 298 299 299 299 298 299 299 299 299 299 298 298 296 295 294 293 292 292 292 291 291 291 292 293 293 293 293 293 293 293 292 292 292 293 294 293 292 293 294 295 295 295 296 296 295 293 292 292 291 290 291 291 291 293 293 292 292 292 292 291 289 290 290 291 290 287
299 296 296 297 296 296 296 296 297 297 297 296 296 294 293 294 294 294 296 297 297 297 296 296 296 297 297 297 297 297 294 294 292 291 291 291 292 291 291 291 292 292 291 291 291 291 292 293 293 292 291 292 290 290 294 291 292 293 294 295 295 295 295 294 293 292 292 292 293 292 291 290 291 291 292 292 292 292 291 289 290 291 290 289 286
295 295 294 294 294 294 295 295 296 295 296 295 292 291 292 292 292 293 295 296 295 294 294 294 294 293 292 292 292 292 291 292 291 291 290 290 291 290 289 290 290 290 290 290 290 290 291 292 292 294 292 291 292 290 289 291 290 292 293 294 295 295 295 294 294 292 292 293 293 292 291 288 290 290 291 292 292 291 289 289 290 290 289 288 286
295 294 293 292 293 293 293 293 294 294 294 293 292 291 291 289 291 294 294 293 292 292 291 290 289 290 290 290 290 290 290 290 290 290 290 289 289 290 290 290 290 290 291 291 291 291 291 291 292 293 293 294 291 291 289 288 289 290 293 294 294 295 294 293 294 295 295 295 294 293 290 289 289 290 291 291 291 290 288 290 289 288 287 286 285
293 293 292 291 292 292 292 291 292 292 292 292 292 291 289 288 291 293 292 291 290 288 287 287 287 288 288 289 289 289 289 289 289 290 289 290 289 288 290 290 290 290 291 291 291 291 292 292 292 292 294 293 292 291 291 289 288 289 291 293 293 294 294 293 293 293 294 295 292 292 290 289 289 289 290 290 290 288 289 289 288 286 285 285 285
292 291 291 290 290 290 289 289 290 290 291 290 290 289 288 290 291 291 290 289 287 286 286 286 286 287 288 288 288 288 288 288 288 290 290 290 290 290 290 290 290 290 290 291 291 291 292 291 291 292 292 293 292 291 291 290 288 287 288 290 292 292 291 290 291 292 290 291 291 290 289 288 288 288 288 287 286 286 287 286 285 284 285 285 285
291 291 290 290 289 289 288 288 288 290 290 290 289 289 289 290 289 289 288 286 285 285 285 286 286 287 287 288 288 289 290 290 289 289 290 290 291 290 290 290 290 290 290 290 291 291 291 291 290 291 291 291 291 292 291 290 290 289 289 289 290 290 289 289 290 289 288 289 287 287 287 287 287 287 287 286 286 285 285 284 284 284 285 285 285
292 291 290 289 289 288 288 288 288 289 290 289 288 288 288 288 288 287 286 285 285 285 285 285 285 286 287 288 288 288 289 290 290 289 290 290 290 290 290 290 290 290 290 290 290 290 290 291 291 291 291 291 291 291 290 290 290 290 290 290 289 289 289 289 289 287 287 287 286 286 286 286 286 286 286 286 285 285 284 283 283 284 284 284 284
290 289 288 289 289 288 288 287 288 289 289 288 288 288 288 287 287 286 286 284 284 284 284 285 286 287 287 288 289 289 289 290 290 290 290 291 290 290 290 290 290 292 292 291 291 291 291 291 291 291 291 290 290 290 290 290 290 289 289 289 289 289 289 289 288 287 285 286 286 285 285 285 285 285 285 284 284 284 283 283 283 283 283 282 283
289 289 288 288 287 287 287 287 288 289 288 288 288 287 288 287 286 286 285 284 284 284 284 285 286 287 288 289 289 289 289 290 289 290 290 290 289 289 290 290 290 289 289 289 290 291 292 292 291 292 292 291 291 291 291 290 290 289 289 290 290 290 290 288 287 288 286 285 285 285 285 285 285 285 284 284 283 283 283 282 282 282 282 282 282
288 288 287 287 287 287 287 287 287 288 288 287 287 287 287 287 286 286 285 284 284 283 284 285 285 286 287 287 287 288 289 289 289 290 289 289 290 289 288 288 289 288 288 288 288 289 290 289 290 291 290 290 290 291 290 289 289 289 289 290 290 290 290 289 288 286 286 286 285 285 285 285 284 285 284 284 283 283 282 281 281 281 282 282 282
Wind_Speed
10 12 13 12 11 10 10 9 10 11 12 13 13 14 15 14 12 14 12 13 12 11 12 12 12 11 12 13 13 11 11 10 7 9 13 13 14 13 13 12 12 12 11 12 12 11 11 10 10 10 9 9 9 10 10 10 10 10 9 8 10 10 9 8 8 6 7 7 7 9 9 9 9 8 8 8 9 6 5 5 5 6 6 6 6
11 12 12 11 10 11 10 9 10 12 12 13 14 15 15 15 15 14 12 12 14 14 12 12 12 12 12 12 12 12 11 10 12 12 13 12 13 13 13 13 14 13 11 12 11 12 12 11 10 10 11 9 9 9 10 10 10 9 8 8 9 10 9 9 8 8 8 8 7 7 9 9 9 9 9 11 11 8 7 6 6 7 7 7 6
12 13 12 12 12 12 11 10 10 13 13 13 13 14 14 14 14 13 13 13 13 14 13 13 13 12 13 11 11 10 11 11 11 12 12 13 14 13 13 13 14 14 14 13 12 13 14 13 11 10 11 10 9 10 10 11 10 11 11 9 8 9 9 8 10 11 8 7 7 6 6 6 6 6 9 11 11 9 7 7 7 7 8 7 6
14 13 13 13 12 11 10 10 10 10 11 11 12 14 12 12 13 14 13 13 12 14 13 13 13 12 13 11 10 10 9 10 11 12 13 15 15 14 14 14 15 14 15 14 12 12 13 13 11 10 11 11 10 10 11 11 11 11 11 11 9 8 9 10 10 11 9 7 8 8 6 5 7 8 10 9 11 11 9 9 8 8 8 8 6
14 15 15 14 12 12 12 11 9 10 11 11 12 12 10 13 13 14 13 14 13 13 14 13 11 11 11 11 10 10 10 10 11 12 14 14 13 15 16 16 16 15 15 17 14 16 14 13 13 12 11 12 11 11 11 11 12 11 12 11 13 11 9 8 9 10 12 10 6 5 6 6 8 6 5 7 10 9 11 10 8 9 9 9 8
15 15 15 13 11 11 11 11 10 10 11 11 11 12 12 11 12 13 11 11 13 14 15 13 12 12 13 12 12 12 14 14 15 15 14 15 16 14 14 16 17 16 16 17 16 14 17 15 14 13 12 12 12 11 10 10 12 12 13 12 13 13 10 8 8 9 10 11 11 9 6 4 4 5 5 4 7 7 8 9 10 10 9 8 8
13 14 12 10 11 11 12 11 11 11 11 9 9 11 13 12 12 13 12 11 11 13 15 13 14 13 15 15 14 14 14 12 12 11 11 11 10 13 13 14 16 17 17 16 17 16 15 15 15 14 13 12 11 11 11 12 11 12 11 12 12 11 11 10 10 9 8 9 10 12 12 9 6 3 5 3 5 6 5 7 9 8 8 9 8
10 10 10 9 10 10 12 10 10 10 9 8 9 10 12 13 12 13 11 11 11 12 14 14 14 14 14 15 13 13 13 12 13 12 11 9 11 12 11 12 15 15 15 16 15 16 16 16 15 15 14 13 12 12 12 11 10 10 11 12 11 10 12 12 10 10 10 9 10 11 12 11 10 9 8 7 6 6 6 5 5 7 7 8 8
11 8 8 8 8 9 9 9 9 9 8 8 9 9 9 10 12 12 13 12 11 13 13 15 14 13 14 13 14 12 12 11 9 10 10 10 12 11 11 11 12 14 15 14 15 16 13 14 14 15 14 15 11 11 12 12 13 11 12 12 12 12 11 11 10 10 11 9 9 10 10 10 9 9 9 7 8 9 10 8 6 5 4 5 7
8 5 5 6 6 7 7 8 8 8 7 7 8 8 8 8 11 13 14 12 12 14 14 15 16 14 14 15 15 13 11 10 10 11 11 11 12 12 11 11 10 11 13 14 14 15 15 14 13 15 15 14 11 12 12 12 12 12 12 12 12 13 11 11 12 10 10 10 10 8 9 8 8 8 9 10 8 9 10 9 6 7 9 7 9
5 4 4 5 6 7 7 9 9 7 6 7 7 8 8 9 11 13 14 12 12 13 15 16 16 15 15 16 16 15 14 12 12 13 11 12 13 13 12 11 11 11 11 12 14 14 14 13 14 13 12 12 12 12 13 12 12 12 12 13 12 13 11 12 11 11 10 10 11 10 10 10 10 10 10 8 9 9 8 11 11 8 9 8 9
4 5 6 4 5 7 7 9 9 9 8 8 7 7 8 9 10 12 13 14 13 13 15 15 15 16 16 17 17 16 15 12 14 14 13 13 13 12 12 11 11 11 11 11 13 14 13 13 13 13 12 14 15 13 11 12 11 11 12 13 13 13 13 11 11 12 14 10 11 11 10 10 10 10 8 9 10 12 11 9 8 7 8 9 5
7 5 5 5 6 6 7 9 8 8 7 8 8 7 8 9 11 12 13 13 13 13 15 16 15 16 16 16 16 14 14 15 13 13 12 12 11 12 12 12 11 12 13 13 13 16 14 13 13 13 14 13 13 15 12 12 11 12 12 13 13 13 13 14 13 12 12 13 11 11 10 11 11 9 8 9 10 9 10 10 8 7 8 6 8
8 7 6 7 7 6 7 7 8 7 7 6 7 8 8 8 11 13 14 12 12 13 15 15 16 16 14 14 14 13 14 14 13 13 13 12 11 12 12 11 11 13 13 14 13 14 14 14 13 14 15 13 13 13 12 12 12 12 13 13 14 13 12 14 14 12 11 12 11 10 11 11 11 10 10 10 11 9 10 11 8 7 8 8 2
7 6 6 7 8 8 6 5 6 7 7 7 6 7 7 8 9 12 13 12 12 13 13 15 14 14 14 13 13 12 12 12 13 12 12 13 12 12 11 11 11 11 11 11 11 12 13 12 13 14 14 14 13 11 10 11 11 11 12 13 12 12 13 12 13 13 12 14 13 12 10 10 10 9 9 10 10 10 9 9 8 9 6 6 5
6 5 6 8 8 7 4 3 6 6 7 6 7 6 6 8 9 10 11 11 11 12 13 13 13 12 14 15 15 13 11 11 11 11 12 12 12 12 12 12 11 10 9 9 10 11 12 13 13 14 13 13 12 11 12 11 11 12 12 11 12 8 10 12 11 11 13 14 14 13 11 11 10 10 10 9 9 9 8 8 9 9 9 8 3
5 4 5 7 7 5 2 2 5 6 6 6 6 6 7 7 8 9 10 10 11 11 12 13 13 13 14 15 14 13 14 15 14 14 14 12 12 12 12 12 11 10 9 8 9 11 11 12 12 13 13 12 12 11 11 11 11 11 11 11 11 10 10 11 11 11 11 11 11 13 12 11 11 9 8 9 9 8 8 8 8 9 7 9 7
5 6 6 7 8 6 3 3 4 6 7 7 7 6 6 7 8 9 10 11 11 11 12 13 14 14 13 13 14 14 14 14 14 14 13 12 12 12 11 11 12 10 9 8 9 11 11 11 11 12 12 12 12 12 12 12 11 10 10 11 11 10 10 10 11 11 11 10 10 10 10 10 10 9 8 8 8 9 8 8 7 7 7 10 8
4 5 4 5 5 4 2 3 4 5 6 7 7 6 6 7 8 9 11 11 11 9 11 11 12 10 9 12 13 14 13 13 12 12 12 12 13 12 12 12 10 10 10 10 11 11 10 11 12 11 11 12 12 12 12 11 12 11 11 11 11 11 10 11 12 11 10 9 10 11 11 11 10 10 9 9 8 8 8 6 6 6 8 9 9
4 6 5 5 6 5 4 5 6 6 7 6 6 5 7 8 8 9 10 10 10 11 10 11 11 11 10 11 12 12 12 12 12 11 12 13 13 12 12 12 12 9 10 11 11 11 11 11 11 12 12 12 12 12 12 12 12 11 11 11 11 12 11 11 11 10 9 10 11 11 12 11 10 8 8 9 9 8 7 7 7 7 7 8 7
4 5 5 6 7 6 5 5 5 5 6 5 4 6 7 7 8 9 10 10 10 10 9 10 9 10 11 12 11 10 12 11 12 12 12 12 12 11 11 11 9 10 10 11 11 12 12 11 11 11 13 13 13 12 12 12 12 12 12 12 11 12 12 10 10 11 10 11 11 11 11 12 10 11 9 9 9 9 8 8 8 8 9 8 8
5 5 6 6 6 6 6 5 3 4 5 5 4 4 5 6 6 7 8 8 9 9 9 10 9 8 10 10 11 10 10 10 11 12 12 12 12 12 11 10 11 11 11 11 12 10 11 12 12 12 12 13 13 13 13 12 13 13 14 11 11 12 12 11 10 11 11 11 10 11 12 11 10 11 9 10 10 9 10 9 9 9 8 7 7
4 5 5 5 5 4 6 6 6 6 6 5 4 4 5 5 5 6 7 8 8 8 8 8 9 10 11 10 10 10 11 12 13 12 13 13 12 11 10 10 11 10 10 11 12 12 11 12 12 12 12 12 13 13 13 13 13 14 14 13 12 12 12 12 12 12 11 10 11 12 12 12 10 11 11 10 9 10 9 10 10 8 9 8 8
3 3 4 4 4 8 7 4 5 6 7 7 4 4 4 4 4 4 6 8 7 7 8 8 9 10 10 10 11 10 10 11 11 11 12 12 10 10 9 10 11 10 11 11 12 12 12 11 11 11 12 13 13 13 13 13 14 13 14 14 13 13 12 12 12 11 11 11 12 11 11 11 10 11 11 10 10 10 10 10 10 9 9 9 8
5 5 4 5 9 11 7 6 6 6 6 7 7 4 3 5 4 4 5 5 6 6 7 8 8 9 9 9 10 9 9 10 11 9 11 10 10 9 8 10 9 10 10 10 10 11 11 11 11 12 13 14 13 13 13 13 12 12 13 13 13 12 12 12 12 12 12 12 12 13 12 11 11 12 11 11 10 11 9 9 9 9 8 8 7
6 6 6 8 10 7 6 7 6 7 10 9 9 6 5 5 5 4 4 4 5 5 7 7 8 8 8 9 9 8 9 10 10 10 10 9 9 10 9 8 9 11 10 10 10 9 10 11 11 11 12 12 12 12 12 12 11 11 11 12 12 11 11 12 11 12 12 12 13 12 11 11 12 12 11 10 10 11 10 10 10 9 8 7 8
6 7 8 11 10 7 8 9 10 14 14 10 8 8 7 7 8 7 4 4 5 5 6 7 7 8 8 8 8 8 8 8 8 9 8 8 9 9 9 10 8 10 11 11 10 10 10 10 10 9 11 11 11 10 10 10 10 10 11 11 11 11 12 11 12 12 12 12 12 12 11 11 12 12 11 11 9 8 9 10 11 10 8 7 7
9 10 10 11 11 10 9 10 13 15 14 10 10 9 8 8 10 7 4 4 4 4 6 6 6 8 8 9 8 6 7 7 7 7 8 9 9 8 9 9 8 10 11 12 11 11 9 8 10 10 11 10 10 9 9 10 11 11 11 11 11 11 11 11 11 12 12 11 11 11 11 11 12 11 11 10 10 10 8 9 8 7 6 7 7
13 13 12 11 10 10 12 14 14 13 13 12 10 11 10 8 6 6 6 6 4 4 5 5 6 7 8 7 6 5 5 6 6 7 7 8 9 9 9 9 9 9 9 10 10 10 9 9 9 10 11 10 10 11 10 10 11 11 10 11 11 11 11 11 10 10 9 10 11 12 11 10 11 13 16 15 14 13 10 9 7 7 7 8 6
14 14 13 12 12 13 14 14 14 14 15 14 12 11 11 12 11 8 7 4 3 4 5 5 6 7 6 5 6 6 5 6 6 7 8 8 8 7 7 8 9 9 8 7 8 8 8 10 11 11 10 11 11 10 13 17 15 11 10 10 10 11 12 11 11 10 9 9 11 10 10 14 15 16 17 17 17 16 15 12 10 9 9 8 7
14 13 13 12 12 12 13 13 12 12 14 15 14 13 12 10 9 9 8 3 3 4 5 5 6 6 6 5 6 6 6 8 8 7 7 7 7 6 7 7 8 8 8 7 6 8 10 11 11 10 11 11 11 11 17 17 18 19 14 11 12 11 11 11 11 12 11 10 9 8 7 9 12 13 14 16 15 15 15 14 12 14 13 13 9
13 13 13 14 12 12 13 13 12 12 14 15 14 12 11 11 9 9 8 2 3 4 5 6 6 6 6 6 6 7 7 8 7 8 7 5 5 6 8 9 9 9 9 5 8 11 10 10 10 11 11 12 12 15 17 18 19 19 17 13 11 11 11 11 11 11 10 9 9 9 7 7 7 9 9 10 12 14 14 13 12 14 15 15 14
9 10 10 12 14 14 13 11 12 14 16 11 6 9 12 12 11 9 7 5 6 5 5 6 6 6 6 6 7 7 8 9 9 8 7 4 6 8 10 9 11 8 5 9 12 10 11 10 10 12 13 13 12 15 18 20 19 19 20 17 12 11 11 11 10 10 9 8 8 8 8 7 7 11 8 7 7 8 10 13 11 13 13 14 12
12 11 11 12 12 10 10 13 17 15 5 3 6 8 10 10 10 9 7 7 7 7 5 6 6 7 7 7 8 8 9 9 7 6 6 6 8 11 10 9 8 7 9 10 10 11 10 10 12 12 12 11 11 13 17 18 18 18 18 17 12 11 11 11 11 10 9 9 9 9 9 8 6 6 6 7 7 7 7 8 7 7 7 9 9
15 13 12 10 10 10 10 9 7 5 4 6 6 8 8 8 7 8 7 7 7 7 7 6 7 7 7 8 8 8 8 7 5 5 6 8 9 10 10 10 9 10 11 12 11 11 12 11 11 10 10 11 11 12 13 14 15 16 16 15 11 10 10 8 8 8 9 9 9 10 9 9 8 9 8 10 9 9 9 8 9 7 7 7 7
14 14 12 10 7 7 7 7 5 5 6 6 7 7 7 8 6 7 9 8 8 8 8 7 8 8 8 9 9 9 8 6 6 6 8 9 9 10 10 7 7 8 8 7 9 10 12 11 9 8 9 12 10 11 13 13 14 14 14 10 9 9 9 7 7 6 7 7 7 8 8 8 8 9 11 15 12 10 9 9 9 7 5 5 5
9 9 9 8 8 8 9 8 7 7 7 8 7 7 8 8 7 6 7 8 8 9 9 9 9 8 8 9 8 7 7 7 6 7 9 10 10 10 9 6 8 9 8 9 11 9 8 8 9 9 10 12 10 9 12 14 14 14 11 8 7 7 6 7 7 6 6 6 7 8 8 8 8 9 12 15 14 13 9 10 9 9 7 5 5
8 9 9 8 8 8 8 7 8 8 7 6 7 9 9 9 8 6 6 7 8 9 9 9 10 9 9 9 8 7 8 8 7 9 10 9 9 5 6 4 8 9 10 11 8 8 9 9 10 11 11 11 11 9 13 14 15 15 13 9 8 7 7 7 6 6 5 6 7 11 11 9 10 10 12 16 15 13 10 10 9 9 8 7 5
7 7 8 9 9 8 7 6 6 7 9 9 9 10 10 10 9 8 7 7 8 9 8 9 10 9 9 9 7 7 8 8 9 9 8 8 6 6 5 4 7 8 10 8 6 9 8 8 9 10 10 12 10 9 13 14 16 16 12 9 7 7 7 8 7 7 4 4 5 7 11 10 10 10 16 16 17 14 9 10 10 10 9 9 8
7 6 7 7 6 7 8 8 9 9 9 9 9 10 10 10 10 9 8 8 8 9 9 9 9 9 9 9 7 8 8 8 9 9 7 8 4 4 4 5 7 7 8 8 6 8 9 8 6 8 7 9 9 8 10 15 16 16 17 10 7 8 10 10 8 8 7 5 5 6 8 11 11 12 15 17 16 13 10 8 9 9 9 10 7
7 7 7 5 6 6 7 8 8 8 7 7 8 9 10 10 10 10 11 10 10 10 9 9 9 9 9 9 8 8 10 9 7 7 6 5 4 4 4 5 6 5 6 7 8 7 8 8 6 6 7 8 8 9 8 13 15 16 17 15 8 11 9 8 8 7 7 8 8 8 7 11 13 14 16 17 18 16 11 8 9 10 9 6 11
2 2 4 6 6 7 7 8 7 7 6 6 8 9 10 10 11 12 11 11 11 12 12 11 11 10 10 10 10 9 6 6 5 5 6 7 4 4 5 5 4 5 7 9 7 7 7 8 6 6 7 7 7 10 8 11 15 16 17 19 11 10 9 8 7 8 8 8 10 9 8 11 14 15 16 18 19 17 14 9 8 8 12 17 11
11 10 6 6 8 9 9 9 10 8 6 6 6 7 9 9 11 13 12 11 12 12 13 13 12 12 10 10 8 8 8 5 6 5 6 8 5 4 5 5 6 6 7 9 8 7 7 8 7 7 6 6 7 6 11 10 12 15 16 18 17 11 13 10 10 10 10 9 6 7 7 13 16 16 17 17 16 16 11 8 13 12 12 15 13
6 5 7 7 7 8 10 10 9 9 7 6 7 8 9 9 13 11 10 11 12 12 12 12 10 11 10 9 9 9 8 6 6 6 5 6 5 4 5 5 5 6 7 8 7 6 6 9 10 9 7 6 4 5 7 12 10 14 15 17 17 15 14 11 9 8 8 8 8 8 8 15 15 15 16 17 17 15 9 13 15 15 17 14 9
10 10 5 3 7 10 10 11 10 10 9 7 5 7 8 11 12 10 11 12 13 12 12 12 12 11 11 10 9 8 8 7 6 5 6 6 6 5 6 5 5 7 7 7 7 6 8 9 8 10 8 5 4 4 6 9 12 12 16 17 17 16 14 13 8 6 6 8 9 14 15 18 17 17 17 16 13 13 13 14 15 16 14 8 9
9 9 10 9 8 6 7 11 12 9 10 7 5 4 8 11 11 10 10 10 10 12 13 13 12 11 11 11 11 10 8 8 7 5 6 5 5 4 5 5 6 7 7 8 8 7 8 8 9 9 8 7 6 6 8 6 7 10 11 15 17 16 13 14 12 6 9 10 11 13 15 16 15 14 12 9 8 9 13 15 16 14 8 8 8
12 12 10 11 9 12 12 11 12 10 9 9 7 6 6 8 8 11 9 9 10 11 12 12 12 12 11 10 11 10 9 7 5 5 5 5 5 6 6 6 6 6 7 8 9 8 8 8 9 9 8 7 8 7 6 5 5 6 8 9 10 10 12 11 8 4 5 5 7 8 8 10 9 12 11 11 11 13 11 9 8 7 6 7 7
11 10 8 8 8 8 10 11 13 12 11 10 9 9 8 7 6 7 8 9 10 9 10 11 13 12 11 10 10 12 11 8 7 5 6 5 6 6 7 8 7 7 7 8 8 8 9 9 8 8 7 8 9 7 7 6 4 6 5 3 5 5 6 6 5 4 5 6 7 8 9 7 8 7 7 7 7 7 7 8 8 7 6 5 6
13 11 7 8 9 10 10 10 12 11 10 9 9 8 8 7 6 6 6 8 9 11 10 11 10 9 10 9 9 8 8 8 8 7 7 7 7 6 8 7 7 7 7 8 7 9 8 7 8 8 8 9 9 9 6 6 7 6 5 6 6 6 5 5 6 10 8 6 7 7 8 8 8 9 8 7 7 7 6 7 8 6 5 7 7
11 11 8 9 9 10 13 12 12 10 8 8 8 7 7 6 5 4 4 7 9 10 10 9 8 8 8 8 8 9 8 8 7 8 9 9 10 13 10 7 6 10 15 14 11 10 7 5 8 8 7 10 10 5 4 10 10 10 12 12 10 10 9 7 11 15 10 8 8 7 7 8 9 8 8 8 8 8 7 7 5 7 8 7 7
11 10 11 9 10 10 10 12 12 8 7 8 9 8 8 6 4 4 4 7 8 9 9 9 8 8 8 9 10 10 9 8 8 8 8 9 10 7 14 18 14 10 10 13 15 16 15 13 9 8 7 13 14 11 8 10 12 13 14 15 13 12 13 13 17 12 8 8 9 9 9 9 9 10 10 10 10 10 9 7 7 8 7 8 8
Wind_Direction
255 253 252 251 244 222 216 219 217 216 214 213 210 209 210 210 206 210 205 203 201 199 200 197 198 206 218 221 223 219 216 212 205 214 218 217 211 209 210 212 213 206 205 215 219 219 224 223 220 220 215 211 215 220 217 215 210 211 214 214 222 228 223 216 234 236 234 236 233 238 240 235 234 231 236 239 238 227 199 194 204 202 203 198 203
258 253 248 242 227 218 215 213 214 219 218 214 211 207 208 209 209 207 204 202 204 203 199 201 199 200 203 213 219 221 214 209 214 216 221 222 217 212 209 210 212 211 203 208 215 217 218 222 221 216 217 211 216 219 216 214 212 210 208 214 210 221 228 210 210 207 224 226 230 231 234 225 220 203 221 234 234 213 204 200 201 205 202 203 202
259 257 251 246 237 223 212 211 215 220 223 216 214 210 208 208 209 206 205 202 205 203 203 202 199 196 198 204 208 214 216 211 217 220 220 223 220 216 214 213 214 212 210 201 210 214 217 219 220 214 213 207 209 213 213 211 210 210 208 211 208 212 224 217 206 199 219 214 228 254 252 254 190 205 222 225 218 207 198 201 201 207 207 205 201
261 257 256 253 249 236 218 214 215 217 223 225 219 215 212 209 208 207 209 207 205 205 204 209 204 197 198 202 200 207 214 213 211 219 224 222 222 218 218 217 214 213 211 206 199 208 212 215 216 212 207 204 208 208 206 208 207 209 209 210 214 215 208 217 211 203 211 199 213 213 230 231 254 207 212 216 212 215 207 204 198 206 209 204 206
261 260 259 259 257 247 235 221 212 212 215 218 218 216 215 214 210 208 208 207 206 202 201 206 200 197 197 199 203 212 222 224 214 220 222 220 219 218 217 214 216 213 208 211 204 207 210 212 213 208 206 204 206 209 206 205 206 208 206 206 207 214 213 209 207 207 206 215 232 202 213 233 234 257 189 208 188 205 204 205 199 204 209 204 207
247 250 253 256 254 253 246 238 224 217 219 217 215 220 220 219 215 211 211 210 208 205 200 199 203 199 194 196 201 208 216 214 217 215 212 214 215 213 212 212 214 214 215 216 213 209 213 213 212 207 206 206 205 209 207 202 204 205 205 206 208 211 222 207 206 202 210 211 230 251 249 240 215 207 198 225 167 206 195 206 207 209 206 203 208
235 237 243 247 246 249 250 247 242 235 233 224 220 222 223 223 217 211 209 210 209 205 198 197 204 204 205 203 200 201 207 211 214 215 214 214 213 209 208 206 209 214 217 215 215 213 214 215 215 213 210 208 202 207 208 206 204 204 201 204 208 206 211 225 211 197 196 220 224 238 251 254 267 220 207 236 229 194 220 195 215 212 212 210 210
251 242 232 228 238 244 256 262 256 251 242 228 226 225 224 224 219 215 212 211 206 202 198 198 203 206 208 210 209 209 208 210 204 210 212 211 209 208 207 208 207 209 212 214 213 212 213 215 215 216 214 209 201 206 208 206 208 204 203 204 206 207 206 213 218 209 190 206 209 228 236 243 245 252 255 260 266 260 204 209 228 207 217 219 218
260 243 229 232 235 245 256 260 256 252 244 228 223 223 226 227 225 221 218 213 209 200 201 201 203 207 210 214 217 216 213 212 206 205 207 205 210 205 206 207 207 208 210 211 211 212 207 211 211 215 214 217 204 207 208 207 207 207 202 204 205 208 208 211 216 217 210 208 184 214 227 230 228 233 242 222 242 251 254 227 193 203 227 231 224
275 263 248 248 244 250 255 264 260 250 240 234 231 228 229 228 226 223 222 217 210 205 199 202 204 205 212 215 218 218 211 212 208 207 204 200 207 207 205 206 206 207 209 209 209 210 208 207 212 215 215 217 211 206 206 207 209 213 212 209 208 209 212 210 215 217 218 214 195 189 202 215 226 230 222 227 222 229 249 239 208 172 216 219 215
264 230 233 239 232 244 252 258 260 254 232 227 232 231 231 228 227 226 224 221 215 210 203 203 203 205 212 215 216 218 214 210 209 213 209 202 205 204 203 204 204 207 204 207 209 206 208 205 208 213 216 217 216 210 207 206 208 214 217 219 215 215 215 215 213 218 221 218 213 205 201 199 206 208 210 197 210 225 227 245 244 220 220 236 203
274 252 261 248 246 245 241 249 256 254 243 227 219 224 229 231 230 231 230 222 217 212 210 208 205 208 213 214 215 215 213 212 214 214 209 208 204 202 202 201 203 204 203 202 204 204 202 206 205 210 217 219 220 218 207 209 212 215 219 222 223 220 224 224 221 216 216 221 219 217 215 211 209 213 210 207 216 226 230 230 223 222 236 236 238
272 279 277 270 261 261 258 263 266 258 241 233 228 219 222 230 230 232 233 226 224 218 215 213 210 212 212 215 218 217 216 217 218 219 215 214 209 207 201 203 203 204 206 204 203 200 200 203 204 208 218 218 220 220 217 213 212 219 222 222 222 220 219 222 225 219 213 216 217 217 220 220 221 211 206 214 217 219 229 241 228 200 218 222 218
283 282 280 274 267 258 253 262 268 270 263 249 235 224 223 225 229 231 235 228 222 220 219 217 217 219 216 216 218 217 219 219 219 219 217 219 215 211 207 203 203 205 205 204 201 197 201 203 202 209 213 215 217 220 219 215 212 219 221 222 223 222 222 219 224 223 222 225 223 220 221 222 227 220 216 216 220 212 222 233 240 224 214 227 130
269 267 268 275 278 275 268 266 271 271 274 270 255 238 230 235 235 235 241 237 228 225 223 223 223 222 222 221 220 220 220 221 222 222 222 218 218 218 215 212 211 210 209 208 200 193 196 196 200 209 209 213 212 210 218 223 216 220 225 226 225 227 224 220 224 219 220 225 223 226 226 226 226 219 219 224 225 223 220 223 227 237 233 229 208
271 268 276 280 278 280 259 256 273 271 274 275 265 258 244 242 241 242 245 244 236 229 227 226 225 223 221 222 221 220 219 223 228 223 225 226 221 220 220 218 217 216 211 206 198 192 190 194 196 204 205 206 207 208 215 221 220 219 224 227 228 221 226 222 226 223 224 225 228 227 229 232 229 225 219 224 227 228 222 224 231 234 230 237 204
256 258 269 281 289 285 253 262 291 289 283 274 278 270 264 258 251 250 247 243 238 235 232 229 228 225 223 221 221 219 220 220 222 223 222 222 224 225 226 225 223 217 215 204 205 194 192 195 198 202 204 204 204 207 213 216 220 222 224 224 226 223 220 221 220 221 225 226 228 227 230 232 232 234 230 226 226 226 228 228 228 229 222 237 224
257 265 272 279 283 291 277 245 268 286 287 288 282 276 264 258 252 253 250 244 239 233 229 228 226 228 227 223 222 222 220 222 225 225 222 222 221 223 224 223 220 216 213 206 204 196 195 189 202 202 203 202 205 208 211 214 212 218 222 226 226 226 223 217 217 218 218 221 223 225 226 232 230 232 235 234 227 228 231 226 223 219 220 232 229
263 273 274 283 298 320 319 302 310 295 286 280 279 272 266 260 254 251 252 249 245 237 232 231 228 224 225 224 221 222 224 226 225 226 226 224 223 221 221 220 221 216 209 205 197 194 193 196 200 201 200 202 206 210 212 212 208 213 216 222 220 220 222 216 217 215 217 215 216 220 221 228 225 229 230 234 234 227 231 231 230 222 223 219 227
307 304 311 311 315 323 331 313 303 313 302 285 283 276 261 258 258 255 255 256 254 247 241 238 233 231 226 226 227 225 225 225 225 225 225 227 227 227 223 224 222 217 216 208 202 196 198 198 199 202 202 202 203 206 212 215 211 211 209 216 216 213 215 216 213 213 214 215 214 216 218 223 221 223 221 223 225 226 223 226 225 225 220 220 216
299 317 325 324 318 321 322 303 297 298 273 263 250 259 262 264 260 258 259 259 255 251 247 247 245 240 236 231 229 227 228 227 228 226 229 229 229 226 230 228 222 224 222 218 211 203 199 198 201 203 207 209 212 213 211 212 213 211 211 216 215 211 211 211 208 211 210 213 214 216 217 222 218 221 220 223 226 225 221 225 223 220 223 213 209
330 332 325 317 315 314 308 298 296 288 282 277 258 251 260 253 256 265 263 259 261 254 243 242 240 241 241 236 233 231 227 226 227 226 225 228 226 224 221 222 225 226 228 228 225 222 215 208 210 212 213 215 215 214 212 211 212 211 211 211 212 206 206 208 206 213 211 212 213 216 219 221 219 223 216 219 218 219 218 221 218 215 218 208 199
335 325 314 305 298 283 283 287 282 264 264 274 259 264 274 280 275 265 263 266 260 258 251 243 237 233 234 236 236 231 226 224 223 222 223 221 223 222 220 224 228 228 229 232 231 231 223 212 212 214 214 218 218 216 213 213 213 210 207 208 207 203 204 206 209 213 213 213 217 217 220 218 217 220 218 221 216 220 217 221 220 212 219 213 203
347 303 292 294 289 296 279 287 300 302 300 302 283 274 273 266 260 258 261 266 263 259 258 251 240 236 235 236 233 233 231 228 227 226 226 224 224 226 220 226 229 230 231 232 233 231 225 210 210 209 211 213 216 216 215 213 213 210 211 210 211 211 209 210 211 214 216 216 219 220 221 216 214 218 218 218 218 217 215 217 219 215 212 211 208
311 303 303 301 302 297 303 303 284 274 286 304 303 287 279 280 270 258 269 270 269 267 260 253 253 250 243 239 237 233 235 232 232 232 231 228 225 223 220 222 227 233 233 234 232 228 223 210 209 209 211 213 215 217 218 216 213 211 211 215 216 216 217 217 217 216 214 216 220 222 221 214 215 223 221 220 215 214 212 212 216 215 209 209 210
307 302 297 302 299 287 287 281 263 297 314 304 304 283 276 272 265 241 270 282 268 263 258 261 258 254 250 245 243 238 236 237 237 238 235 231 228 226 225 222 221 233 233 231 227 214 216 219 217 214 216 218 219 220 220 218 215 215 220 221 220 219 219 218 218 217 217 216 220 220 218 214 216 219 221 218 214 212 211 212 214 213 206 203 205
278 292 299 298 283 272 282 274 314 324 313 307 299 295 286 271 279 276 233 236 263 265 262 255 254 255 254 247 243 238 236 237 237 239 241 238 234 229 225 225 218 222 229 232 225 223 221 227 228 222 222 221 222 221 224 222 222 221 222 223 222 220 218 218 219 219 218 218 219 220 219 215 218 220 222 220 217 215 212 215 211 209 199 195 195
304 294 289 285 284 284 276 303 319 309 301 299 301 294 281 283 289 286 250 227 211 237 249 250 251 253 251 249 243 243 248 243 242 239 238 239 238 235 231 228 220 215 220 227 230 228 227 221 225 226 225 222 224 222 217 220 222 221 218 219 218 220 222 223 221 218 216 217 221 223 222 217 216 217 218 220 212 211 206 213 211 202 187 184 192
284 282 281 279 269 277 293 306 305 294 293 297 298 299 298 292 270 260 254 239 227 227 241 242 246 252 255 258 256 249 248 248 240 242 240 239 241 240 240 237 231 226 221 224 225 223 220 219 218 221 223 219 221 222 219 216 218 219 217 217 217 218 219 221 224 223 221 219 220 220 218 218 216 215 214 213 211 206 199 207 205 183 180 182 181
278 276 272 276 277 283 294 294 289 291 297 301 298 295 299 304 308 302 284 264 175 230 241 244 244 249 253 250 248 244 238 243 247 244 245 247 249 253 257 252 246 240 229 219 223 224 222 222 222 220 218 218 220 220 216 212 209 211 213 216 216 217 216 217 218 220 220 219 221 220 217 213 214 215 216 215 214 207 201 201 191 181 177 178 180
271 273 274 279 282 283 285 283 283 295 304 307 307 303 304 307 309 306 303 280 181 231 235 237 250 249 252 244 240 241 237 236 232 235 239 244 248 254 256 256 255 253 245 232 222 224 224 225 224 222 219 219 220 219 213 209 210 209 210 214 214 216 214 216 218 218 218 215 219 219 222 216 217 219 218 217 213 207 202 204 189 184 182 179 179
267 273 278 278 279 282 283 284 292 300 303 302 304 312 316 311 308 307 306 269 205 225 243 245 245 257 255 250 242 243 237 240 229 228 228 237 250 250 248 245 247 249 250 254 236 230 229 226 225 225 224 221 222 216 209 211 210 210 209 215 217 217 214 216 216 218 219 213 213 214 218 215 212 213 207 211 212 205 198 195 186 187 190 192 184
273 270 269 273 277 279 280 288 294 294 289 299 330 320 310 308 305 301 299 277 260 236 241 249 246 246 248 244 242 240 242 242 238 238 228 215 226 236 243 242 240 240 246 238 242 239 235 232 229 229 230 227 227 214 210 212 210 210 211 212 221 217 215 218 216 215 215 211 207 209 214 212 214 211 209 200 190 193 192 186 181 187 193 192 193
287 282 277 272 270 273 281 285 285 290 321 2 314 297 290 290 292 293 286 280 267 260 234 247 248 248 246 239 234 233 238 247 248 235 224 230 228 233 232 232 239 232 229 241 243 240 241 234 232 236 240 239 236 224 214 215 212 210 211 211 225 221 221 219 215 207 206 205 204 204 205 210 204 195 196 190 181 172 166 166 167 178 190 201 198
287 289 285 278 278 282 282 290 312 336 320 304 292 278 284 292 305 308 307 295 280 264 253 245 251 248 244 243 237 229 238 249 241 231 226 236 243 252 243 233 220 222 222 226 230 233 234 233 233 233 243 245 243 236 227 223 219 216 215 212 223 225 227 224 215 207 205 205 202 201 200 202 193 193 192 185 176 170 166 172 172 181 187 181 185
291 287 296 314 325 322 320 319 339 329 310 296 287 295 298 296 311 302 301 296 290 282 272 253 245 243 240 245 246 249 249 241 230 221 226 238 240 241 251 265 266 257 247 242 242 234 235 230 231 228 234 244 244 232 227 226 224 222 220 222 228 229 227 221 217 211 210 205 199 194 198 201 192 195 193 186 182 167 167 168 172 174 172 163 174
322 347 357 355 345 341 349 348 336 324 313 300 303 311 308 306 308 299 291 292 287 281 275 270 269 263 257 257 256 261 265 257 245 237 235 238 241 244 243 231 242 247 251 244 240 240 246 240 230 223 228 241 243 228 223 223 224 223 220 224 221 227 229 220 218 206 206 203 200 193 193 196 190 199 185 183 182 163 164 170 169 169 169 163 161
360 351 351 356 354 348 339 332 317 309 307 320 329 326 318 309 304 297 291 286 282 279 285 287 285 284 282 283 276 258 258 255 247 244 244 243 236 235 237 211 229 243 242 244 246 247 239 234 229 224 219 230 240 218 212 217 218 218 210 215 211 211 219 211 212 205 204 203 202 198 194 188 188 193 178 182 179 168 166 168 164 159 165 177 170
4 354 348 345 338 330 316 314 318 320 330 334 330 327 321 314 307 302 294 288 287 290 291 292 291 293 291 288 285 271 259 256 253 254 253 257 249 239 231 208 228 234 246 250 240 245 247 238 233 231 213 219 234 221 207 213 216 214 208 208 200 199 204 207 199 204 196 193 194 199 202 196 191 185 177 182 181 177 170 169 168 165 178 190 186
355 0 355 324 314 322 333 336 328 324 330 336 336 329 320 312 311 308 300 296 301 309 312 309 304 299 296 290 288 280 268 260 258 259 255 251 253 248 234 230 234 231 244 243 240 240 245 247 243 237 233 225 232 235 217 220 219 215 206 198 190 191 205 202 196 190 184 195 192 194 203 203 191 176 176 177 182 186 174 169 164 178 179 196 165
345 343 328 332 336 326 318 316 314 318 327 334 336 331 322 320 315 313 310 315 319 317 313 312 308 303 299 295 291 286 279 266 254 259 260 254 238 234 235 233 242 240 239 244 238 240 241 247 235 234 237 233 224 230 226 214 218 214 206 195 198 203 202 190 194 190 193 190 192 200 198 192 181 174 176 179 180 184 175 168 176 189 197 152 137
282 304 339 337 327 319 319 321 320 329 331 339 338 328 319 319 319 312 313 323 328 325 320 314 308 304 304 303 300 293 281 274 270 261 264 259 239 225 231 230 238 242 243 246 242 239 242 246 239 229 229 234 224 224 230 219 216 213 208 200 200 208 196 184 187 200 196 201 198 189 188 186 182 177 179 179 180 180 169 163 179 150 129 136 142
336 336 345 350 334 332 328 324 326 335 341 336 339 327 319 318 312 308 317 326 327 323 319 316 311 308 303 297 294 290 283 274 267 254 251 260 249 230 227 224 232 239 244 250 247 244 246 250 249 240 233 231 227 228 230 230 221 216 211 206 207 201 188 185 190 198 202 200 187 183 181 179 181 178 178 179 177 173 161 163 150 135 129 128 130
306 298 311 333 327 327 326 322 322 323 331 336 340 329 323 316 302 313 325 325 324 323 320 313 307 302 299 295 290 286 278 269 262 255 250 254 256 245 242 227 217 230 243 246 247 241 244 251 251 252 244 234 226 233 235 233 228 217 216 212 210 204 188 195 193 199 189 189 178 179 174 176 181 178 176 174 172 169 170 165 150 138 138 136 134
312 315 321 327 329 322 321 315 318 322 324 331 336 328 320 316 314 328 328 327 324 322 317 312 311 308 303 298 292 285 280 268 254 237 241 246 245 234 243 235 221 227 230 247 252 236 239 246 251 253 255 249 234 233 242 231 227 224 219 216 215 212 202 189 198 213 188 193 187 177 171 174 177 173 170 163 161 159 156 154 143 139 141 141 146
305 314 328 329 321 314 313 315 316 321 320 324 333 338 319 308 316 323 323 325 322 318 314 311 311 309 307 307 301 293 276 265 257 237 229 226 233 229 233 237 227 234 230 230 243 243 246 246 249 251 250 249 241 233 236 229 220 228 227 224 216 210 204 203 206 199 193 179 174 172 169 167 167 164 152 152 154 157 151 147 146 145 147 150 157
318 318 329 326 332 327 324 320 313 315 316 319 325 327 313 314 319 320 323 323 318 311 307 309 311 312 310 310 304 300 301 288 254 253 236 223 215 220 226 232 228 227 233 240 238 233 240 248 252 255 254 248 245 240 237 230 218 222 230 228 218 218 208 196 196 184 160 152 142 143 152 155 154 158 149 140 138 141 140 143 150 153 150 151 155
305 307 313 311 313 312 310 311 310 313 319 321 324 323 324 321 315 314 317 317 309 309 309 310 311 310 307 308 305 300 297 290 280 254 257 246 222 213 220 222 216 216 228 235 236 240 239 236 246 254 254 250 246 240 226 219 221 228 240 236 226 213 195 195 178 144 131 130 129 125 126 129 134 131 130 133 139 146 146 150 152 152 147 139 126
305 308 311 304 308 306 297 295 293 300 307 310 311 312 314 309 304 305 306 305 303 306 304 302 303 304 303 304 299 298 294 292 291 282 260 256 256 232 227 230 215 214 216 226 230 237 240 243 242 237 241 254 249 242 232 191 222 203 204 208 208 213 200 192 159 136 119 115 126 140 149 154 163 160 155 151 150 148 149 152 148 142 121 132 139
300 301 305 303 296 291 294 293 289 292 294 294 297 299 295 290 291 288 290 297 303 307 306 305 305 303 302 308 312 309 304 295 287 285 287 278 259 254 251 237 233 204 218 220 219 234 227 227 242 245 224 236 247 252 185 193 206 200 207 216 218 199 185 170 149 149 144 147 162 164 171 169 170 173 165 161 158 154 148 148 144 139 145 149 149
302 303 300 293 286 284 280 281 281 282 283 294 298 299 297 296 294 291 296 295 302 304 303 303 306 303 308 311 307 304 305 301 296 292 288 288 295 268 248 249 244 231 213 217 224 231 235 234 232 250 236 231 241 241 211 195 200 204 205 209 209 200 182 164 155 150 167 173 171 175 180 184 182 178 176 174 167 164 161 147 146 153 159 156 156